JUGNU
1 37839U 11058B 20100.36189354 .00000306 00000-0 21491-4 0 9997
2 37839 019.9622 341.7647 0018825 346.7836 169.6266 14.12676567439001
SRMSAT
1 37841U 11058D 20100.55279919 .00000306 00000-0 22860-4 0 9999
2 37841 019.9730 043.5043 0011827 206.0759 309.7332 14.10654822438422
AO-71
1 37854U 11061E 20100.12576296 .00000445 00000-0 30651-4 0 9999
2 37854 101.7040 155.6186 0158579 267.9281 090.3766 15.07118445461035
HRBE
1 37855U 11061F 20100.42498374 .00000881 00000-0 51562-4 0 9991
2 37855 101.7180 153.2597 0171181 279.7848 78.4072 15.06140219461282
ALMASAT-1
1 38078U 12006B 20100.56621458 .00375911 72015-4 40062-3 0 9995
2 38078 69.4114 121.6501 0039868 160.0252 346.1604 16.08176889444144
HORYU-2
1 38340U 12025D 20100.73366162 .00000156 00000-0 30746-4 0 9991
2 38340 98.2888 152.5738 0010166 258.4808 101.5259 14.75830248424828
RS-40
1 38735U 12041C 20100.76918612 .00000016 00000-0 45947-4 0 9997
2 38735 82.4781 43.4811 0016351 315.3178 44.6580 12.42579384349326
BEESAT-3
1 39135U 13015F 20100.53370146 .00000768 00000-0 46744-4 0 9993
2 39135 064.8671 163.9846 0042074 258.5678 101.0721 15.18056088384751
BEESAT-2
1 39136U 13015G 20100.55343650 .00000854 00000-0 52109-4 0 9994
2 39136 064.8665 168.6608 0028906 281.0335 078.7540 15.17430390384662
ZACUBE-1
1 39417U 13066B 20100.53019882 .00000195 00000-0 30687-4 0 9992
2 39417 097.5650 102.3915 0059822 142.7121 217.8269 14.81246373344839
TRITON-1
1 39427U 13066M 20100.49856067 .00000194 00000-0 39234-4 0 9998
2 39427 097.7188 065.2868 0112372 299.0916 059.9074 14.67975602341542
GOMX-1
1 39430U 13066Q 20100.76258643 .00000219 00000-0 48363-4 0 9999
2 39430 97.7842 43.4618 0152223 41.3389 319.9221 14.59371809339781
LO-74
1 39440U 13066AA 20100.54505475 .00000161 00000-0 29352-4 0 9997
2 39440 97.6269 86.8740 0079460 202.9843 156.7805 14.75984271343615
AO-73
1 39444U 13066AE 20100.56746960 .00000238 00000-0 35287-4 0 9998
2 39444 97.5600 104.6169 0059113 135.2197 225.3811 14.82092558343755
SPROUT
1 39770U 14029E 20100.74619037 .00000796 00000-0 93474-4 0 9995
2 39770 97.8898 207.3488 0008572 185.2800 174.8332 14.87680599318844
DUCHIFAT-1
1 40021U 14033M 20100.35196365 .00000481 00000-0 54662-4 0 9999
2 40021 97.9397 31.1808 0013421 149.4364 210.7638 14.90856590315593
NANOSATCBR1
1 40024U 14033Q 20100.73939716 .00000395 00000-0 46836-4 0 9997
2 40024 97.9254 28.1691 0012678 152.0918 208.0982 14.90033315315529
DTUSAT-2
1 40030U 14033W 20100.52388945 .00000256 00000-0 33430-4 0 9995
2 40030 097.9028 022.4642 0012307 155.5404 204.6399 14.88683055314752
EO-80
1 40032U 14033Y 20100.54038578 .00000260 00000-0 33940-4 0 9994
2 40032 097.9035 022.4825 0012253 156.3886 203.7895 14.88630312314735
ANTELSAT
1 40034U 14033AA 20100.51087152 .00000192 00000-0 35780-4 0 9993
2 40034 097.7237 319.4750 0057587 220.4668 139.2252 14.74229628311720
VELOX-1
1 40057U 14034E 20100.84663562 .00000291 00000-0 48140-4 0 9994
2 40057 98.2675 235.9744 0010991 12.7225 347.4257 14.77835305311503
DAURIA DX 1
1 40071U 14037C 20100.88998697 .00000105 00000-0 21026-4 0 9995
2 40071 98.4554 275.5097 0008579 5.7471 354.3840 14.81349260311108
HODOYOSHI-1
1 40299U 14070B 20100.78454399 .00000596 00000-0 27433-4 0 9991
2 40299 97.3257 179.1075 0014805 79.0943 38.6148 15.23995943301351
CHUBUSAT-1
1 40300U 14070C 20100.80377771 .00000605 00000-0 28984-4 0 9998
2 40300 97.2939 172.0010 0021416 94.0532 45.1315 15.22431009301062
QSAT-EOS
1 40301U 14070D 20100.77918082 .00001687 00000-0 66266-4 0 9997
2 40301 97.2966 176.7837 0026918 72.8237 47.8585 15.26754831301455
FIREBIRD FU3
1 40377U 15003B 20100.53467106 .00001796 00000-0 72633-4 0 9993
2 40377 099.1031 146.6245 0124495 183.7148 176.3170 15.19802577286838
FIREBIRD FU4
1 40378U 15003C 20100.71713427 .00001791 00000-0 72368-4 0 9994
2 40378 99.1032 146.9387 0124685 182.9773 177.0730 15.19818454286871
GRIFEX
1 40379U 15003D 20100.72012604 .00001022 00000-0 47060-4 0 9993
2 40379 99.1106 139.2512 0132894 206.7136 152.7206 15.16227843286431
NO-84
1 40654U 15025D 20099.17368898 .00008697 00000-0 10814-3 0 8998
2 40654 54.9862 264.3615 0120930 7.3913 352.8837 15.52643101158109
DEORBITSAIL
1 40719U 15032E 20100.46722461 .00000371 00000-0 59776-4 0 9996
2 40719 097.8782 350.7803 0017850 071.8735 288.4418 14.76952735255918
NUDT-PHONESAT
1 40900U 15049B 20100.79017485 .00001929 00000-0 82865-4 0 9990
2 40900 97.4342 112.3428 0011386 218.7533 315.9623 15.23845963252737
XW-2A
1 40903U 15049E 20100.70795429 .00001869 00000-0 44484-4 0 9993
2 40903 97.2962 149.5888 0014095 146.3627 2.0604 15.42838455255878
XW-2C
1 40906U 15049H 20100.86647050 .00000743 00000-0 42086-4 0 9995
2 40906 97.4767 103.2308 0012994 250.7637 195.6834 15.15998907251865
XW-2D
1 40907U 15049J 20100.73870470 .00000755 00000-0 42463-4 0 9998
2 40907 97.4748 102.8013 0012426 247.5457 199.6473 15.16221439251860
LILACSAT-2
1 40908U 15049K 20100.78934823 .00000161 00000-0 12492-4 0 9997
2 40908 97.4897 101.2985 0014176 258.2789 276.6328 15.13996222251601
XW-2E
1 40909U 15049L 20100.75785948 .00001027 00000-0 53328-4 0 9992
2 40909 97.4635 106.1837 0011886 238.1678 294.6447 15.18306810252102
XW-2F
1 40910U 15049M 20100.86800735 .00001059 00000-0 55653-4 0 9996
2 40910 97.4677 105.3986 0013086 236.2456 209.1084 15.17817826251934
XW-2B
1 40911U 15049N 20100.71925706 .00000706 00000-0 40019-4 0 9995
2 40911 97.4761 103.4736 0012386 248.2935 198.6941 15.16148083251753
DCBB
1 40912U 15049P 20100.78879294 .00000933 00000-0 46196-4 0 9997
2 40912 97.4504 109.3958 0013730 213.0556 321.9412 15.20192350252287
TW-1C
1 40926U 15051B 20100.81350267 .00018209 00000-0 19962-3 0 9998
2 40926 97.0933 152.2282 0005771 5.6110 84.6540 15.63280813256297
TW-1A
1 40928U 15051D 20100.70069491 .00002604 00000-0 62368-4 0 9995
2 40928 97.1165 130.1946 0012518 79.6128 15.6332 15.42253036254774
IO-86
1 40931U 15052B 20100.65893719 .00000717 00000-0 10725-4 0 9995
2 40931 5.9960 106.1065 0013429 24.2183 335.8359 14.76631669245079
LQSat
1 40958U 15057A 20100.44663402 .00000010 00000-0 91386-5 0 9999
2 40958 097.8593 166.0439 0018411 016.3786 343.8013 14.73113994242354
ATHENOXAT-1
1 41168U 15077C 20100.66743281 .00002049 00000-0 71938-4 0 9997
2 41168 14.9874 206.0622 0011385 251.1688 108.7398 15.14242131238904
ChubuSat-2
1 41338U 16012B 20100.30870629 .00000308 00000-0 17199-4 0 9999
2 41338 031.0036 065.9297 0013784 151.9676 208.1704 15.00269630227342
ChubuSat-3
1 41339U 16012C 20100.90969040 .00000311 00000-0 17368-4 0 9994
2 41339 31.0117 59.8309 0013587 166.7632 193.3363 15.00436783227437
Horyu-4
1 41340U 16012D 20100.56054198 .00000492 00000-0 30431-4 0 9993
2 41340 31.0058 50.5060 0014032 185.2377 174.8114 15.01458992227517
OUFTI-1
1 41458U 16025C 20100.48533251 .00001731 00000-0 89451-4 0 9993
2 41458 098.0983 207.4522 0165585 082.1115 279.8869 15.06689002217096
